CW9451 Weather Reports


Display with metric or nautical units.
time (UTC)temp
F
wind
direction
speed
MPH
gust
MPH
rain 1hr
in
rain 24hr
in
rain mn
in
humidity
%
barometer
mb
20260903061904 62 0.0 0.0 0.00 0.00 0.00 94 1019.6
20260903060908 62 0.0 0.0 0.00 0.00 0.00 95 1019.9
20260903054904 62 0.0 0.0 0.00 0.00 0.00 96 1019.9
20260903053904 61 0.0 0.0 0.00 0.00 0.00 96 1020.0
20260903052904 61 0.0 0.0 0.00 0.00 0.00 96 1020.4
20260903051904 61 0.0 0.0 0.00 0.00 0.00 96 1020.2
20260903050905 61 0.0 0.0 0.00 0.00 0.00 96 1020.1
20260903045907 61 0.0 0.0 0.00 0.00 0.00 97 1020.3
20260903044908 61 0.0 0.0 0.00 0.00 0.00 97 1020.2
20260903042903 61 0.0 0.0 0.00 0.00 0.00 96 1020.4
20260903041903 61 0.0 0.0 0.00 0.00 0.00 97 1020.3
20260903040903 61 0.0 0.0 0.00 0.00 0.00 96 1020.1
20260903035904 61 0.0 0.0 0.00 0.00 0.00 96 1020.2
20260903034904 61 0.0 0.0 0.00 0.00 0.00 95 1020.1
20260903033903 61 0.0 0.0 0.00 0.00 0.00 96 1020.3
20260903032903 61 0.0 0.0 0.00 0.00 0.00 97 1020.3
20260903031904 61 0.0 0.0 0.00 0.00 0.00 97 1020.2
20260903030905 61 0.0 0.0 0.00 0.00 0.00 97 1020.3
20260903025904 61 0.0 0.0 0.00 0.00 0.00 97 1020.4
20260903024905 61 0.0 0.0 0.00 0.00 0.00 96 1020.5
20260903023904 61 0.0 0.0 0.00 0.00 0.00 96 1020.4
20260903022904 60 0.0 0.0 0.00 0.00 0.00 95 1020.5
20260903021909 61 0.0 0.0 0.00 0.00 0.00 95 1020.6
20260903015904 61 0.0 0.0 0.00 0.00 0.00 94 1020.7
20260903014903 61 0.0 0.0 0.00 0.00 0.00 94 1020.5
20260903013904 61 0.0 0.0 0.00 0.00 0.00 93 1020.5
20260903012909 61 0.0 0.0 0.00 0.00 0.00 93 1020.7
20260903010904 62 0.0 0.0 0.00 0.00 0.00 94 1020.8
20260903005905 62 0.0 0.0 0.00 0.00 0.00 94 1020.8
20260903004904 62 0.0 0.0 0.00 0.00 0.00 94 1021.0
20260903003904 62 0.0 0.0 0.00 0.00 0.00 94 1021.0
20260903002904 62 0.0 0.0 0.00 0.00 0.00 94 1020.9
20260903001904 62 0.0 0.0 0.00 0.00 0.00 94 1021.1
20260903000905 62 0.0 0.0 0.00 0.00 0.00 94 1021.0
20260902235904 62 0.0 0.0 0.00 0.00 0.00 92 1021.1
20260902234904 62 0.0 0.0 0.00 0.00 0.00 93 1021.1
20260902233905 62 0.0 0.0 0.00 0.00 0.00 93 1021.2
20260902232905 62 0.0 0.0 0.00 0.00 0.00 93 1021.3
20260902231904 62 0.0 0.0 0.00 0.00 0.00 93 1021.2
20260902230905 63 0.0 0.0 0.00 0.00 0.00 92 1021.4
20260902225904 63 0.0 0.0 0.00 0.00 0.00 92 1021.3
20260902224904 63 0.0 0.0 0.00 0.00 0.00 92 1021.3
20260902223905 63 0.0 0.0 0.00 0.00 0.00 91 1021.2
20260902222904 63 0.0 0.0 0.00 0.00 0.00 92 1021.2
20260902221908 64 0.0 0.0 0.00 0.00 0.00 92 1021.5
20260902214904 64 0.0 0.0 0.00 0.00 0.00 91 1021.4
20260902213905 64 0.0 0.0 0.00 0.00 0.00 90 1021.4
20260902212904 63 0.0 0.0 0.00 0.00 0.00 89 1021.5
20260902211904 63 0.0 0.0 0.00 0.00 0.00 89 1021.1
20260902210905 63 0.0 0.0 0.00 0.00 0.00 88 1021.1
20260902205909 63 0.0 0.0 0.00 0.00 0.00 88 1021.0
20260902203904 63 0.0 0.0 0.00 0.00 0.00 88 1021.0
20260902202909 64 0.0 0.0 0.00 0.00 0.00 87 1020.9
20260902200904 64 0.0 0.0 0.00 0.00 0.00 86 1020.7
20260902195904 64 0.0 0.0 0.00 0.00 0.00 87 1020.8
20260902194904 64 0.0 0.0 0.00 0.00 0.00 86 1020.8
20260902193904 65 0.0 0.0 0.00 0.00 0.00 85 1020.7
20260902192903 65 0.0 0.0 0.00 0.00 0.00 84 1020.6
20260902191904 65 0.0 0.0 0.00 0.00 0.00 84 1020.6
20260902190904 66 0.0 0.0 0.00 0.00 0.00 84 1020.5
20260902185905 66 0.0 0.0 0.00 0.00 0.00 83 1020.4
20260902184905 66 0.0 0.0 0.00 0.00 0.00 81 1020.4
20260902183904 67 0.0 0.0 0.00 0.00 0.00 81 1020.2
20260902182903 67 0.0 0.0 0.00 0.00 0.00 80 1020.0
20260902181904 68 0.0 0.0 0.00 0.00 0.00 79 1019.8
20260902180905 69 0.0 0.0 0.00 0.00 0.00 77 1019.5
20260902175905 70 0.0 0.0 0.00 0.00 0.00 73 1019.2
20260902174904 72 0.0 0.0 0.00 0.00 0.00 68 1019.0
20260902173904 76 0.0 0.0 0.00 0.00 0.00 62 1018.9
20260902172903 77 0.0 0.0 0.00 0.00 0.00 63 1019.2
20260902171904 76 0.0 0.0 0.00 0.00 0.00 63 1019.2
20260902170904 75 0.0 0.0 0.00 0.00 0.00 63 1018.8
20260902165904 77 0.0 0.0 0.00 0.00 0.00 61 1019.3
20260902164904 76 0.0 0.0 0.00 0.00 0.00 63 1019.3
20260902163904 76 0.0 0.0 0.00 0.00 0.00 62 1019.3
20260902162905 74 0.0 0.0 0.00 0.00 0.00 62 1018.8
20260902161904 76 0.0 0.0 0.00 0.00 0.00 62 1019.1
20260902160905 76 0.0 0.0 0.00 0.00 0.00 59 1019.1
20260902155904 75 0.0 0.0 0.00 0.00 0.00 64 1019.1
20260902154904 75 0.0 0.0 0.00 0.00 0.00 64 1019.2
20260902153908 75 0.0 0.0 0.00 0.00 0.00 63 1019.2
20260902151904 75 0.0 0.0 0.00 0.00 0.00 65 1019.2
20260902150904 75 0.0 0.0 0.00 0.00 0.00 64 1019.5
20260902145905 76 0.0 0.0 0.00 0.00 0.00 63 1019.5
20260902144904 75 0.0 0.0 0.00 0.00 0.00 66 1019.9
20260902143904 75 0.0 0.0 0.00 0.00 0.00 69 1020.1
20260902142905 75 0.0 0.0 0.00 0.00 0.00 68 1020.0
20260902141904 75 0.0 0.0 0.00 0.00 0.00 70 1020.3
20260902140904 75 0.0 0.0 0.00 0.00 0.00 71 1020.5
20260902135904 73 0.0 0.0 0.00 0.00 0.00 74 1020.3
20260902134903 74 0.0 0.0 0.00 0.00 0.00 76 1020.6
20260902133904 71 0.0 0.0 0.00 0.00 0.00 84 1020.8
20260902132905 70 0.0 0.0 0.00 0.00 0.00 84 1020.5
20260902131905 70 0.0 0.0 0.00 0.00 0.00 87 1020.9
20260902130904 69 0.0 0.0 0.00 0.00 0.00 90 1020.7
20260902125904 69 0.0 0.0 0.00 0.00 0.00 90 1020.5
20260902124904 70 0.0 0.0 0.00 0.00 0.00 85 1020.6
20260902123904 71 0.0 0.0 0.00 0.00 0.00 87 1021.0
20260902122903 69 0.0 0.0 0.00 0.00 0.00 89 1020.9
20260902121903 68 0.0 0.0 0.00 0.00 0.00 89 1020.8
20260902120904 68 0.0 0.0 0.00 0.00 0.00 90 1020.9
20260902115904 69 0.0 0.0 0.00 0.00 0.00 89 1021.0
20260902114904 69 0.0 0.0 0.00 0.00 0.00 91 1021.3
20260902113905 68 0.0 0.0 0.00 0.00 0.00 91 1021.3
20260902112905 68 0.0 0.0 0.00 0.00 0.00 95 1021.5
20260902111904 68 0.0 0.0 0.00 0.00 0.00 10 1021.6
20260902110904 66 0.0 0.0 0.00 0.00 0.00 10 1021.5
20260902105904 66 0.0 0.0 0.00 0.00 0.00 10 1021.6
20260902104904 67 0.0 0.0 0.00 0.00 0.00 10 1021.7
20260902103907 67 0.0 0.0 0.00 0.00 0.00 10 1021.7
20260902102905 67 0.0 0.0 0.00 0.00 0.00 10 1021.9
20260902101904 67 0.0 0.0 0.00 0.00 0.00 10 1021.9
20260902100905 67 0.0 0.0 0.00 0.00 0.00 99 1022.0
20260902095904 67 0.0 0.0 0.00 0.00 0.00 10 1022.1
20260902094904 67 0.0 0.0 0.00 0.00 0.00 10 1022.1
20260902093905 66 0.0 0.0 0.00 0.00 0.00 10 1022.1
20260902092905 66 0.0 0.0 0.00 0.00 0.00 10 1022.1
20260902091904 66 0.0 0.0 0.00 0.00 0.00 10 1022.3
20260902090905 65 0.0 0.0 0.00 0.00 0.00 10 1022.2
20260902085904 64 0.0 0.0 0.00 0.00 0.00 10 1022.2
20260902084904 64 0.0 0.0 0.00 0.00 0.00 10 1022.0
20260902083905 64 0.0 0.0 0.00 0.00 0.00 10 1022.0
20260902082904 64 0.0 0.0 0.00 0.00 0.00 10 1022.2
20260902081905 63 0.0 0.0 0.00 0.00 0.00 10 1022.3
20260902080904 63 0.0 0.0 0.00 0.00 0.00 10 1022.4
20260902075905 63 0.0 0.0 0.00 0.00 0.00 10 1022.4
20260902074905 62 0.0 0.0 0.00 0.00 0.00 10 1022.4
20260902073904 62 0.0 0.0 0.00 0.00 0.00 10 1022.4
20260902072905 62 0.0 0.0 0.00 0.00 0.00 10 1022.5
20260902071905 62 0.0 0.0 0.00 0.00 0.00 10 1022.5
20260902070904 61 0.0 0.0 0.00 0.00 0.00 10 1022.4
20260902065905 61 0.0 0.0 0.00 0.00 0.00 10 1022.2
20260902064904 60 0.0 0.0 0.00 0.00 0.00 10 1022.4
20260902063904 60 0.0 0.0 0.00 0.00 0.00 10 1022.4
20260902062904 60 0.0 0.0 0.00 0.00 0.00 10 1022.3